Dobrodošli na spletni strani vremenske postaje Senovo. Vse informacije so informativnega značaja, saj vremenska postaja ni del državne mreže meteoroloških postaj. AKTUALNIH OBVESTIL NI.


Sneg/Led Od: 21-02-2018 00:00 Do: 23-02-2018 23:59 Opozorilo za: Sneg/Led Stopnja: Rumena info button
Veter Od: 21-02-2018 00:00 Do: 22-02-2018 23:59 Opozorilo za: Veter Stopnja: Rumena info button

Pogled proti Armezu več informacij Pogled proti Armezu


Lisca več informacij Lisca


Radar strel več informacij blitzortung!


opozorilo za sneg/led več informacij rain snow radar


Obiščite še:

Template documentation
and downloads

And another site



Weather Underground, zgodovina - Tekstovno

Dnevni povzetek za Avgust 6, 2017 Enote:  Metrično    Angleško   Obe
« Predhodni Dan
Naslednji Dan »
Dnevni Tedenski Mesečni Letni Po meri
  Višja: Nižja: Povprečje:
Temperatura: -17.8 °C -7.7 °C -4.6 °C
Točka rosišča: -17.8 °C -9.1 °C -8 °C
Vlažnost: Humidity % 54 % 69 %
Hitrost vetra: 0 km/h 0 km/h 8 km/h
Sunki vetra: 0 km/h - -
Veter:- - ESE
Zračni tlak: 0 hPa 34371.3 hPa -
Padavine: 231.14 mm    
Historical Graphs
 
 
Tabelarni podarki za Avgust 6, 2017
Čas Temperatura Točka rosišča Zračni tlak Veter Hitrost vetra Sunki vetra Vlažnost Intenziteta padavin (urna)
-17.8 °C -17.8 °C 0 hPa Calm     Humidity % 0 mm
00:02 -4.9 °C -6.6 °C 34371.3 hPa Calm     83 % 0 mm
00:07 -5 °C -6.7 °C 34371.3 hPa Calm     83 % 0 mm
00:08 -5.2 °C -6.8 °C 34371.3 hPa Calm     84 % 0 mm
00:13 -5 °C -6.6 °C 34371.3 hPa Calm     84 % 0 mm
00:18 -5.1 °C -6.6 °C 34371.3 hPa Calm     84 % 0 mm
00:23 -5.1 °C -6.6 °C 34371.3 hPa Calm     84 % 0 mm
00:28 -5.1 °C -6.6 °C 34371.3 hPa Calm     84 % 0 mm
00:33 -5.1 °C -6.6 °C 34371.3 hPa Calm     84 % 0 mm
00:38 -5.1 °C -6.6 °C 34371.3 hPa Calm     85 % 0 mm
00:43 -5.1 °C -6.6 °C 34371.3 hPa Calm     85 % 0 mm
00:48 -5.1 °C -6.6 °C 34371.3 hPa Calm     85 % 0 mm
00:53 -5.2 °C -6.6 °C 34371.3 hPa Calm     85 % 0 mm
00:58 -5.2 °C -6.6 °C 34371.3 hPa Calm     85 % 0 mm
01:03 -5.2 °C -6.6 °C 34371.3 hPa Calm     85 % 0 mm
01:04 -5.2 °C -6.6 °C 34371.3 hPa Calm     85 % 0 mm
01:09 -5.2 °C -6.7 °C 34371.3 hPa Calm     85 % 0 mm
01:14 -5.2 °C -6.6 °C 34371.3 hPa Calm     86 % 0 mm
01:19 -5.2 °C -6.6 °C 34371.3 hPa Calm     86 % 0 mm
01:24 -5.3 °C -6.6 °C 34371.3 hPa Calm     86 % 0 mm
01:29 -5.3 °C -6.7 °C 34371.3 hPa Calm     86 % 0 mm
01:39 -5.4 °C -6.6 °C 34405.1 hPa Calm     87 % 0 mm
01:44 -5.3 °C -6.6 °C 34405.1 hPa SE 1 km/h 9.3 km/h 86 % 0 mm
01:49 -5 °C -6.7 °C 34371.3 hPa ENE 5.5 km/h 19.2 km/h 83 % 0 mm
01:54 -4.6 °C -6.6 °C 34371.3 hPa ENE 6.4 km/h 19.2 km/h 80 % 0 mm
01:59 -4.4 °C -6.8 °C 34371.3 hPa ENE 5.5 km/h 26.2 km/h 77 % 0 mm
02:04 -4.1 °C -6.7 °C 34371.3 hPa NE 6.9 km/h 26.2 km/h 75 % 0 mm
02:09 -3.9 °C -6.7 °C 34371.3 hPa NE 6.4 km/h 14 km/h 74 % 0 mm
02:14 -3.9 °C -6.9 °C 34371.3 hPa ENE 5 km/h 14 km/h 72 % 0 mm
02:19 -3.9 °C -7 °C 34371.3 hPa East 3.9 km/h 11.1 km/h 71 % 0 mm
02:24 -3.8 °C -7.1 °C 34371.3 hPa East 5.1 km/h 15 km/h 70 % 0 mm
02:29 -3.8 °C -7.2 °C 34371.3 hPa ENE 8.9 km/h 22.5 km/h 69 % 0 mm
02:34 -3.8 °C -7.2 °C 34371.3 hPa ENE 9.7 km/h 22.5 km/h 69 % 0 mm
02:39 -3.8 °C -7.3 °C 34371.3 hPa ENE 8.5 km/h 22.5 km/h 68 % 0 mm
02:44 -3.8 °C -7.3 °C 34371.3 hPa ENE 7.7 km/h 19.2 km/h 68 % 0 mm
02:49 -3.8 °C -7.4 °C 34371.3 hPa ENE 5.5 km/h 19.2 km/h 67 % 0 mm
02:54 -3.9 °C -7.6 °C 34371.3 hPa ESE 2.9 km/h 9.8 km/h 67 % 0 mm
02:59 -3.9 °C -7.6 °C 34371.3 hPa SE 2.1 km/h 9.8 km/h 67 % 0 mm
03:04 -4 °C -7.6 °C 34371.3 hPa ESE 3.7 km/h 12.2 km/h 67 % 0 mm
03:14 -4 °C -7.8 °C 34371.3 hPa ENE 5.5 km/h 16.3 km/h 66 % 0 mm
03:19 -3.9 °C -8.1 °C 34371.3 hPa ENE 8 km/h 15 km/h 63 % 0 mm
03:24 -3.8 °C -8.2 °C 34371.3 hPa ENE 8 km/h 16.3 km/h 62 % 0 mm
03:29 -3.8 °C -8.3 °C 34371.3 hPa East 8.2 km/h 19.2 km/h 61 % 0 mm
03:34 -3.8 °C -8.4 °C 34371.3 hPa East 7.7 km/h 19.2 km/h 60 % 0 mm
03:39 -3.8 °C -8.4 °C 34371.3 hPa East 8.9 km/h 26.7 km/h 60 % 0 mm
03:44 -3.8 °C -8.4 °C 34371.3 hPa ESE 9.3 km/h 26.7 km/h 60 % 0 mm
03:49 -3.9 °C -8.5 °C 34371.3 hPa ESE 6.9 km/h 12.2 km/h 60 % 0 mm
03:54 -3.9 °C -8.6 °C 34371.3 hPa ESE 4.3 km/h 11.6 km/h 60 % 0 mm
03:59 -4.1 °C -8.5 °C 34371.3 hPa ESE 4.2 km/h 10.3 km/h 61 % 0 mm
04:04 -4.1 °C -8.6 °C 34371.3 hPa SSE 6.9 km/h 15.6 km/h 61 % 0 mm
04:09 -4.2 °C -8.6 °C 34371.3 hPa South 8.2 km/h 20.9 km/h 61 % 0 mm
04:14 -4.2 °C -8.5 °C 34371.3 hPa South 6.8 km/h 20.9 km/h 62 % 0 mm
04:19 -4.3 °C -8.5 °C 34371.3 hPa SSE 5.1 km/h 15 km/h 63 % 0 mm
04:24 -4.4 °C -8.6 °C 34371.3 hPa SSE 4.2 km/h 15.6 km/h 63 % 0 mm
04:29 -4.6 °C -8.6 °C 34371.3 hPa South 5.5 km/h 16.3 km/h 64 % 0 mm
04:34 -4.7 °C -8.4 °C 34371.3 hPa SSW 6.3 km/h 16.3 km/h 66 % 0 mm
04:39 -4.8 °C -8.4 °C 34371.3 hPa SW 2.9 km/h 9.3 km/h 67 % 0 mm
04:44 -5 °C -8.4 °C 34371.3 hPa NW 0.8 km/h 5.1 km/h 68 % 0 mm
04:49 -5.1 °C -8.4 °C 34371.3 hPa NW 0.5 km/h 5.1 km/h 69 % 0 mm
04:54 -5.2 °C -8.4 °C 34371.3 hPa Calm     70 % 0 mm
04:59 -5.3 °C -8.5 °C 34371.3 hPa Calm     70 % 0 mm
05:04 -5.4 °C -8.5 °C 34371.3 hPa West 0.5 km/h 5.1 km/h 71 % 0 mm
05:09 -5.6 °C -8.5 °C 34371.3 hPa West 0.5 km/h 5.1 km/h 72 % 0 mm
05:14 -5.7 °C -8.5 °C 34371.3 hPa Calm     73 % 0 mm
05:20 -5.7 °C -8.4 °C 34371.3 hPa Calm     74 % 0 mm
05:25 -5.8 °C -8.3 °C 34371.3 hPa Calm     75 % 0 mm
05:30 -5.8 °C -8.3 °C 34371.3 hPa Calm     76 % 0 mm
05:35 -5.8 °C -8.3 °C 34371.3 hPa Calm     76 % 0 mm
05:40 -5.9 °C -8.2 °C 34371.3 hPa Calm     77 % 0 mm
05:45 -5.9 °C -8.2 °C 34371.3 hPa Calm     77 % 0 mm
05:50 -5.9 °C -8.2 °C 34371.3 hPa Calm     77 % 0 mm
05:55 -5.9 °C -8.2 °C 34371.3 hPa Calm     78 % 0 mm
06:00 -5.9 °C -8.1 °C 34371.3 hPa Calm     79 % 0 mm
06:05 -5.9 °C -8.1 °C 34371.3 hPa Calm     79 % 0 mm
06:10 -6 °C -8 °C 34371.3 hPa Calm     80 % 0 mm
06:15 -6 °C -8.1 °C 34371.3 hPa Calm     79 % 0 mm
06:20 -6 °C -8 °C 34405.1 hPa Calm     80 % 0 mm
06:25 -6.1 °C -8.1 °C 34405.1 hPa Calm     80 % 0 mm
06:30 -6.1 °C -7.9 °C 34405.1 hPa Calm     81 % 0 mm
06:35 -6.1 °C -7.9 °C 34405.1 hPa Calm     81 % 0 mm
06:40 -6.1 °C -7.9 °C 34405.1 hPa Calm     81 % 0 mm
06:45 -6 °C -7.9 °C 34405.1 hPa Calm     81 % 0 mm
06:50 -6 °C -7.8 °C 34405.1 hPa Calm     82 % 0 mm
06:55 -6 °C -7.8 °C 34405.1 hPa Calm     82 % 0 mm
07:00 -5.9 °C -7.7 °C 34405.1 hPa Calm     82 % 0 mm
07:05 -5.9 °C -7.6 °C 34428.8 hPa Calm     83 % 0 mm
07:10 -5.8 °C -7.6 °C 34428.8 hPa Calm     82 % 0 mm
07:15 -5.8 °C -7.4 °C 34428.8 hPa Calm     83 % 0 mm
07:20 -5.7 °C -7.4 °C 34405.1 hPa Calm     83 % 0 mm
07:25 -5.6 °C -7.3 °C 34405.1 hPa Calm     83 % 0 mm
07:30 -5.6 °C -7.3 °C 34405.1 hPa Calm     82 % 0 mm
07:35 -5.4 °C -7.2 °C 34405.1 hPa Calm     82 % 0 mm
07:40 -5.3 °C -7.2 °C 34405.1 hPa NNW 0.3 km/h 3.4 km/h 81 % 0 mm
07:45 -5.3 °C -7.2 °C 34405.1 hPa NNW 0.3 km/h 3.4 km/h 81 % 0 mm
07:50 -5.2 °C -7.1 °C 34428.8 hPa WSW 0.3 km/h 3.4 km/h 81 % 0 mm
07:55 -5.1 °C -7.1 °C 34428.8 hPa WSW 0.3 km/h 3.4 km/h 80 % 0 mm
08:00 -4.9 °C -7.1 °C 34428.8 hPa Calm     79 % 0 mm
08:05 -4.8 °C -7 °C 34405.1 hPa SE 0.5 km/h 5.6 km/h 79 % 0 mm
08:10 -4.7 °C -7 °C 34405.1 hPa SE 0.5 km/h 6.9 km/h 78 % 0 mm
08:15 -4.6 °C -7 °C 34405.1 hPa SW 2.6 km/h 9.3 km/h 77 % 0 mm
08:20 -4.5 °C -7 °C 34371.3 hPa SW 5.1 km/h 9.3 km/h 76 % 0 mm
08:25 -4.4 °C -7.1 °C 34371.3 hPa SW 3.7 km/h 7.6 km/h 75 % 0 mm
08:30 -4.4 °C -7.1 °C 34371.3 hPa SSW 3.9 km/h 9.3 km/h 74 % 0 mm
08:35 -4.3 °C -6.9 °C 34371.3 hPa SW 4.3 km/h 9.8 km/h 75 % 0 mm
08:40 -4.3 °C -7 °C 34371.3 hPa SW 5.5 km/h 9.8 km/h 74 % 0 mm
08:45 -4.2 °C -7.1 °C 34371.3 hPa SSW 7.6 km/h 12.7 km/h 73 % 0 mm
08:50 -4.2 °C -6.9 °C 34405.1 hPa SSW 7.2 km/h 12.7 km/h 74 % 0 mm
08:55 -4 °C -6.8 °C 34405.1 hPa SW 7.7 km/h 11.1 km/h 74 % 0 mm
09:00 -3.9 °C -6.8 °C 34405.1 hPa SW 7.2 km/h 9.8 km/h 73 % 0 mm
09:05 -3.8 °C -6.8 °C 34405.1 hPa SW 6 km/h 9.3 km/h 72 % 0 mm
09:10 -3.6 °C -6.8 °C 34405.1 hPa SW 6.4 km/h 11.1 km/h 71 % 0 mm
09:15 -3.4 °C -7 °C 34405.1 hPa SSW 6.8 km/h 11.1 km/h 68 % 0 mm
09:20 -3.4 °C -7.2 °C 34371.3 hPa South 5.5 km/h 9.8 km/h 66 % 0 mm
09:25 -3.3 °C -7.2 °C 34371.3 hPa East 3.4 km/h 9.8 km/h 65 % 0 mm
09:30 -3 °C -7.4 °C 34371.3 hPa East 4.7 km/h 15.6 km/h 62 % 0 mm
09:35 -2.8 °C -7.5 °C 34405.1 hPa East 7.2 km/h 16.3 km/h 60 % 0 mm
09:40 -2.8 °C -7.6 °C 34405.1 hPa East 8.5 km/h 16.3 km/h 59 % 0 mm
09:45 -2.7 °C -8 °C 34405.1 hPa East 9.8 km/h 19.2 km/h 56 % 0 mm
09:50 -2.7 °C -8.3 °C 34405.1 hPa East 11.4 km/h 23 km/h 54 % 0 mm
09:55 -2.7 °C -8.2 °C 34405.1 hPa East 10.9 km/h 23 km/h 55 % 0 mm
10:00 -2.7 °C -8.1 °C 34405.1 hPa East 9 km/h 16.3 km/h 55 % 0 mm
10:05 -2.7 °C -8.1 °C 34405.1 hPa East 7.6 km/h 16.3 km/h 55 % 0 mm
10:10 -2.7 °C -8.1 °C 34405.1 hPa East 9 km/h 20.3 km/h 55 % 0 mm
10:15 -2.6 °C -8.1 °C 34405.1 hPa East 11.6 km/h 20.3 km/h 55 % 0 mm
10:21 -2.6 °C -8.1 °C 34405.1 hPa East 10.3 km/h 22 km/h 55 % 0 mm
10:26 -2.7 °C -8.3 °C 34405.1 hPa East 9.3 km/h 22 km/h 54 % 0 mm
10:31 -2.6 °C -8.1 °C 34405.1 hPa East 10.1 km/h 22.5 km/h 55 % 0 mm
10:36 -2.6 °C -8 °C 34405.1 hPa East 11.9 km/h 24.8 km/h 55 % 0 mm
10:41 -2.6 °C -8 °C 34405.1 hPa East 11.9 km/h 26.7 km/h 55 % 0 mm
10:46 -2.6 °C -8 °C 34405.1 hPa East 11.1 km/h 26.7 km/h 55 % 0 mm
10:51 -2.4 °C -7.9 °C 34405.1 hPa East 10.3 km/h 20.9 km/h 55 % 0 mm
10:56 -2.5 °C -7.9 °C 34405.1 hPa East 11.4 km/h 26.7 km/h 55 % 0 mm
11:01 -2.5 °C -7.9 °C 34405.1 hPa East 10.6 km/h 26.7 km/h 55 % 0 mm
11:06 -2.5 °C -7.9 °C 34405.1 hPa East 9 km/h 22 km/h 55 % 0 mm
11:11 -2.4 °C -7.9 °C 34405.1 hPa East 8.5 km/h 18.7 km/h 55 % 0 mm
11:16 -2.4 °C -7.9 °C 34405.1 hPa East 9.8 km/h 27.7 km/h 55 % 0 mm
11:20 -2.3 °C -7.8 °C 34405.1 hPa East 11.6 km/h 27.7 km/h 55 % 0 mm
11:24 -2.3 °C -7.8 °C 34405.1 hPa ESE 11.6 km/h 22.5 km/h 55 % 0 mm
11:29 -2.3 °C -7.8 °C 34405.1 hPa East 11.9 km/h 22.5 km/h 55 % 0 mm
11:34 -2.3 °C -7.6 °C 34405.1 hPa East 12.9 km/h 25.4 km/h 56 % 0 mm
11:40 -2.3 °C -7.8 °C 34405.1 hPa East 13.5 km/h 25.4 km/h 55 % 0 mm
11:45 -2.3 °C -7.8 °C 34405.1 hPa East 11.9 km/h 22 km/h 55 % 0 mm
11:50 -2.2 °C -7.7 °C 34405.1 hPa ENE 10.9 km/h 23.8 km/h 55 % 0 mm
11:55 -2.2 °C -7.6 °C 34405.1 hPa East 11.6 km/h 23.8 km/h 56 % 0 mm
12:00 -2.3 °C -7.8 °C 34405.1 hPa East 10.3 km/h 20.9 km/h 55 % 0 mm
12:05 -2.3 °C -7.4 °C 34405.1 hPa ENE 10.1 km/h 20.9 km/h 57 % 0 mm
12:10 -2.2 °C -7.4 °C 34405.1 hPa ENE 11.9 km/h 44.1 km/h 57 % 0 mm
12:15 -2.2 °C -7.3 °C 34405.1 hPa ENE 13.5 km/h 44.1 km/h 57 % 0 mm
12:20 -2.2 °C -7.4 °C 34405.1 hPa ENE 13.5 km/h 33.6 km/h 57 % 0 mm
12:25 -2.3 °C -7.4 °C 34405.1 hPa East 12.9 km/h 31.4 km/h 57 % 0 mm
12:30 -2.3 °C -7.5 °C 34405.1 hPa East 13.2 km/h 31.4 km/h 57 % 0 mm
12:35 -2.4 °C -7.4 °C 34405.1 hPa ENE 13.5 km/h 28.5 km/h 58 % 0 mm
12:40 -2.4 °C -7.3 °C 34405.1 hPa East 12.7 km/h 28.5 km/h 59 % 0 mm
12:45 -2.4 °C -7.4 °C 34405.1 hPa East 11.4 km/h 23.8 km/h 58 % 0 mm
12:50 -2.4 °C -7.4 °C 34371.3 hPa ENE 11.4 km/h 23.8 km/h 58 % 0 mm
12:55 -2.4 °C -7.3 °C 34371.3 hPa East 14 km/h 50.5 km/h 59 % 0 mm
13:00 -2.5 °C -7.7 °C 34371.3 hPa East 16.3 km/h 50.5 km/h 57 % 0 mm
13:05 -2.5 °C -7.7 °C 34371.3 hPa ENE 15 km/h 22.5 km/h 57 % 0 mm
13:10 -2.5 °C -7.7 °C 34371.3 hPa ENE 12.7 km/h 28.5 km/h 57 % 0 mm
13:15 -2.4 °C -7.6 °C 34371.3 hPa ENE 11.1 km/h 28.5 km/h 57 % 0 mm
13:20 -2.4 °C -7.7 °C 34428.8 hPa ENE 13.5 km/h 34.1 km/h 56 % 0 mm
13:25 -2.4 °C -7.7 °C 34428.8 hPa East 15 km/h 34.1 km/h 56 % 0 mm
13:32 -2.3 °C -7.7 °C 34428.8 hPa ENE 13.5 km/h 25.4 km/h 56 % 0 mm
13:37 -2.3 °C -7.8 °C 34405.1 hPa ENE 13.7 km/h 26.2 km/h 55 % 0 mm
13:42 -2.4 °C -7.9 °C 34405.1 hPa ENE 14.5 km/h 28.5 km/h 55 % 0 mm
13:47 -2.3 °C -7.8 °C 34405.1 hPa ENE 14.8 km/h 28.5 km/h 55 % 0 mm
13:52 -2.3 °C -7.8 °C 34405.1 hPa ENE 13.5 km/h 27.2 km/h 55 % 0 mm
13:57 -2.3 °C -7.8 °C 34405.1 hPa East 14 km/h 27.2 km/h 55 % 0 mm
14:02 -2.3 °C -7.8 °C 34405.1 hPa East 14.2 km/h 27.2 km/h 55 % 0 mm
14:07 -2.3 °C -7.6 °C 34428.8 hPa East 15 km/h 26.7 km/h 56 % 0 mm
14:13 -2.3 °C -7.7 °C 34428.8 hPa East 16.6 km/h 39.9 km/h 56 % 0 mm
14:18 -2.4 °C -7.7 °C 34428.8 hPa East 16.6 km/h 39.9 km/h 56 % 0 mm
14:23 -2.4 °C -7.7 °C 34405.1 hPa East 15.8 km/h 33.2 km/h 56 % 0 mm
14:28 -2.4 °C -7.7 °C 34405.1 hPa East 13.7 km/h 33.6 km/h 56 % 0 mm
14:33 -2.5 °C -7.8 °C 34405.1 hPa East 12.7 km/h 33.6 km/h 56 % 0 mm
14:38 -2.6 °C -8.1 °C 34428.8 hPa East 13.5 km/h 22.5 km/h 55 % 0 mm
14:43 -2.6 °C -7.9 °C 34428.8 hPa ENE 11.6 km/h 34.1 km/h 56 % 0 mm
14:48 -2.7 °C -8.1 °C 34428.8 hPa East 11.9 km/h 34.1 km/h 55 % 0 mm
14:53 -2.8 °C -8.2 °C 34405.1 hPa East 12.7 km/h 22.5 km/h 55 % 0 mm
14:58 -2.9 °C -8.3 °C 34405.1 hPa East 13.5 km/h 35.2 km/h 55 % 0 mm
15:03 -2.9 °C -8.4 °C 34405.1 hPa East 14.5 km/h 35.2 km/h 55 % 0 mm
15:08 -3 °C -8.3 °C 34405.1 hPa East 14.2 km/h 43 km/h 56 % 0 mm
15:13 -3.1 °C -8.4 °C 34405.1 hPa East 13.5 km/h 43 km/h 56 % 0 mm
15:18 -3.2 °C -8.3 °C 34405.1 hPa ENE 11.4 km/h 22 km/h 57 % 0 mm
15:23 -3.2 °C -8.3 °C 34428.8 hPa NE 9 km/h 22 km/h 57 % 0 mm
15:24 -3.2 °C -8.3 °C 34428.8 hPa NE 8.9 km/h 22 km/h 57 % 0 mm
15:29 -3.2 °C -8.1 °C 34428.8 hPa NE 9.7 km/h 25.4 km/h 58 % 0 mm
15:34 -3.1 °C -8.2 °C 34405.1 hPa ENE 9.3 km/h 25.4 km/h 57 % 0 mm
15:40 -3.1 °C -8.2 °C 34405.1 hPa ENE 9 km/h 20.9 km/h 57 % 0 mm
15:43 -3.1 °C -8 °C 34405.1 hPa ENE 11.1 km/h 20.9 km/h 58 % 0 mm
15:48 -3.1 °C -8.1 °C 34405.1 hPa NE 10.3 km/h 20.9 km/h 58 % 0 mm
15:53 -3.2 °C -8.1 °C 34405.1 hPa NE 10.3 km/h 22 km/h 58 % 0 mm
15:58 -3.3 °C -8.3 °C 34405.1 hPa NE 11.6 km/h 22.5 km/h 58 % 0 mm
16:03 -3.4 °C -8.2 °C 34405.1 hPa NE 10.1 km/h 22.5 km/h 59 % 0 mm
16:08 -3.4 °C -8.2 °C 34405.1 hPa ENE 9.7 km/h 20.9 km/h 59 % 0 mm
16:13 -3.4 °C -8.1 °C 34405.1 hPa ENE 10.3 km/h 20.9 km/h 60 % 0 mm
16:18 -3.5 °C -8.2 °C 34405.1 hPa East 8 km/h 20.9 km/h 60 % 0 mm
16:23 -3.5 °C -8 °C 34428.8 hPa East 6.4 km/h 19.6 km/h 61 % 0 mm
16:28 -3.5 °C -8 °C 34428.8 hPa ENE 7.7 km/h 19.6 km/h 61 % 0 mm
16:29 -3.5 °C -8 °C 34428.8 hPa ENE 7.7 km/h 19.6 km/h 61 % 0 mm
16:34 -3.6 °C -8.1 °C 34405.1 hPa ENE 6.4 km/h 22.5 km/h 61 % 0 mm
16:39 -3.7 °C -8.2 °C 34405.1 hPa NNE 5.6 km/h 22.5 km/h 61 % 0 mm
16:44 -3.8 °C -8.4 °C 34405.1 hPa NNE 8 km/h 20.3 km/h 60 % 0 mm
16:45 -3.8 °C -8.4 °C 34405.1 hPa NE 9.3 km/h 50.5 km/h 60 % 0 mm
16:50 -3.9 °C -8.8 °C 34405.1 hPa NE 13.7 km/h 50.5 km/h 58 % 0 mm
16:55 -4 °C -8.9 °C 34405.1 hPa ENE 13.5 km/h 29 km/h 58 % 0 mm
17:00 -4.1 °C -9 °C 34405.1 hPa NE 11.6 km/h 26.2 km/h 58 % 0 mm
17:05 -4.2 °C -9.1 °C 34405.1 hPa NE 11.6 km/h 26.2 km/h 58 % 0 mm
17:10 -4.2 °C -8.8 °C 34405.1 hPa ENE 13.5 km/h 38.3 km/h 60 % 0 mm
17:16 -4.3 °C -8.5 °C 34405.1 hPa ENE 17.9 km/h 38.3 km/h 63 % 7.62 mm
17:21 -4.6 °C -8.5 °C 34405.1 hPa ENE 17.4 km/h 36.5 km/h 65 % 7.62 mm
17:26 -4.8 °C -8.4 °C 34405.1 hPa ENE 13.2 km/h 39.4 km/h 67 % 7.62 mm
17:31 -4.8 °C -8.4 °C 34405.1 hPa ENE 10.3 km/h 39.4 km/h 67 % 7.62 mm
17:36 -4.7 °C -8.2 °C 34405.1 hPa NE 9.3 km/h 26.7 km/h 68 % 7.62 mm
17:41 -4.5 °C -8 °C 34405.1 hPa NE 8.9 km/h 22 km/h 68 % 7.62 mm
17:46 -4.5 °C -8 °C 34405.1 hPa ENE 11.4 km/h 29.5 km/h 68 % 7.62 mm
17:51 -4.4 °C -7.9 °C 34405.1 hPa ENE 12.4 km/h 29.5 km/h 68 % 7.62 mm
17:56 -4.4 °C -8.1 °C 34405.1 hPa ENE 11.6 km/h 20.3 km/h 67 % 7.62 mm
18:01 -4.6 °C -8.3 °C 34405.1 hPa ENE 13.5 km/h 33.6 km/h 66 % 7.62 mm
18:06 -4.7 °C -8.4 °C 34405.1 hPa ENE 12.4 km/h 33.6 km/h 66 % 7.62 mm
18:11 -4.8 °C -8.5 °C 34405.1 hPa NE 12.7 km/h 27.2 km/h 66 % 7.62 mm
18:21 -4.9 °C -8.5 °C 34405.1 hPa ENE 10.9 km/h 25.4 km/h 67 % 0 mm
18:26 -4.9 °C -8.6 °C 34405.1 hPa NE 11.4 km/h 25.4 km/h 67 % 0 mm
18:31 -5 °C -8.6 °C 34405.1 hPa ENE 8.5 km/h 16.9 km/h 67 % 0 mm
18:36 -5.1 °C -8.7 °C 34428.8 hPa NE 6.8 km/h 19.6 km/h 67 % 0 mm
18:41 -5.1 °C -8.7 °C 34428.8 hPa ENE 9 km/h 19.6 km/h 67 % 0 mm
18:46 -5.1 °C -8.7 °C 34428.8 hPa East 11.6 km/h 31.4 km/h 67 % 0 mm
18:51 -5.2 °C -8.7 °C 34428.8 hPa East 10.1 km/h 31.4 km/h 67 % 0 mm
18:56 -5.2 °C -8.7 °C 34428.8 hPa ENE 10.3 km/h 26.2 km/h 67 % 0 mm
18:58 -5.2 °C -8.7 °C 34428.8 hPa ENE 10.6 km/h 27.7 km/h 67 % 0 mm
19:03 -5.2 °C -8.9 °C 34428.8 hPa ENE 14.2 km/h 41.7 km/h 66 % 0 mm
19:08 -5.2 °C -8.8 °C 34428.8 hPa ENE 16.1 km/h 41.7 km/h 67 % 0 mm
19:13 -5.3 °C -8.8 °C 34428.8 hPa ENE 14 km/h 34.8 km/h 68 % 0 mm
19:18 -5.4 °C -8.8 °C 34428.8 hPa ENE 13.2 km/h 33.6 km/h 68 % 0 mm
19:23 -5.4 °C -8.7 °C 34428.8 hPa ENE 13.5 km/h 33.2 km/h 69 % 0 mm
19:28 -5.4 °C -8.8 °C 34428.8 hPa ENE 12.7 km/h 33.2 km/h 69 % 0 mm
19:33 -5.5 °C -8.7 °C 34428.8 hPa East 11.6 km/h 22 km/h 70 % 0 mm
19:38 -5.6 °C -8.7 °C 34428.8 hPa ENE 11.6 km/h 22 km/h 70 % 0 mm
19:43 -5.6 °C -8.7 °C 34428.8 hPa ENE 14.5 km/h 22 km/h 71 % 0 mm
19:48 -5.6 °C -8.7 °C 34428.8 hPa ENE 16.1 km/h 19.2 km/h 71 % 0 mm
19:53 -5.7 °C -8.7 °C 34428.8 hPa East 15.3 km/h 33.6 km/h 71 % 0 mm
19:58 -5.7 °C -8.8 °C 34428.8 hPa East 14 km/h 33.6 km/h 71 % 0 mm
20:04 -5.8 °C -8.8 °C 34428.8 hPa ENE 12.2 km/h 25.4 km/h 71 % 0 mm
20:09 -5.8 °C -8.9 °C 34428.8 hPa ENE 13.5 km/h 43.5 km/h 71 % 0 mm
20:14 -5.9 °C -8.8 °C 34428.8 hPa ENE 14.5 km/h 43.5 km/h 72 % 0 mm
20:19 -6.1 °C -8.7 °C 34428.8 hPa ENE 17.1 km/h 45.9 km/h 74 % 0 mm
20:24 -6.1 °C -8.8 °C 34428.8 hPa ENE 17.5 km/h 45.9 km/h 74 % 0 mm
20:29 -6.2 °C -8.8 °C 34428.8 hPa NE 15.8 km/h 34.8 km/h 74 % 0 mm
20:34 -6.2 °C -8.9 °C 34428.8 hPa ENE 15.8 km/h 34.8 km/h 74 % 0 mm
20:39 -6.3 °C -8.9 °C 34428.8 hPa ENE 12.7 km/h 32.3 km/h 74 % 0 mm
20:44 -6.3 °C -8.9 °C 34428.8 hPa ENE 10.6 km/h 32.3 km/h 74 % 0 mm
20:49 -6.3 °C -8.9 °C 34476.3 hPa ENE 12.4 km/h 49.7 km/h 75 % 0 mm
20:54 -6.4 °C -8.9 °C 34476.3 hPa ENE 14.2 km/h 49.7 km/h 75 % 0 mm
20:59 -6.4 °C -8.9 °C 34476.3 hPa ENE 12.7 km/h 33.6 km/h 75 % 0 mm
21:04 -6.4 °C -9 °C 34476.3 hPa ENE 10.3 km/h 23 km/h 75 % 0 mm
21:09 -6.4 °C -8.8 °C 34476.3 hPa ENE 11.4 km/h 27.2 km/h 76 % 0 mm
21:14 -6.4 °C -8.7 °C 34476.3 hPa East 16.3 km/h 34.1 km/h 77 % 0 mm
21:19 -6.4 °C -8.8 °C 34476.3 hPa East 17.4 km/h 39.9 km/h 77 % 0 mm
21:24 -6.4 °C -8.8 °C 34476.3 hPa East 15 km/h 39.9 km/h 77 % 0 mm
21:29 -6.5 °C -8.7 °C 34476.3 hPa East 14.2 km/h 38.3 km/h 78 % 0 mm
21:34 -6.5 °C -8.7 °C 34476.3 hPa East 12.7 km/h 31.9 km/h 78 % 0 mm
21:39 -6.5 °C -8.7 °C 34476.3 hPa East 9.8 km/h 28.5 km/h 78 % 0 mm
21:44 -6.5 °C -8.6 °C 34476.3 hPa ENE 12.4 km/h 28.5 km/h 79 % 0 mm
21:49 -6.6 °C -8.5 °C 34476.3 hPa ENE 15 km/h 26.2 km/h 81 % 7.62 mm
21:54 -6.7 °C -8.6 °C 34476.3 hPa East 12.7 km/h 26.2 km/h 81 % 7.62 mm
21:59 -6.8 °C -8.7 °C 34476.3 hPa East 10.1 km/h 23.8 km/h 81 % 12.7 mm
22:04 -6.8 °C -8.6 °C 34476.3 hPa NE 9.7 km/h 16.9 km/h 82 % 12.7 mm
22:09 -6.9 °C -8.7 °C 34476.3 hPa ENE 8.5 km/h 14 km/h 82 % 12.7 mm
22:14 -6.9 °C -8.7 °C 34476.3 hPa East 6.3 km/h 12.7 km/h 82 % 12.7 mm
22:19 -6.9 °C -8.5 °C 34533.8 hPa West 6.3 km/h 15.6 km/h 84 % 20.32 mm
22:24 -7 °C -8.4 °C 34533.8 hPa SSE 6.8 km/h 15.6 km/h 85 % 25.4 mm
22:29 -7.1 °C -8.6 °C 34533.8 hPa ENE 9 km/h 33.2 km/h 84 % 76.2 mm
22:30 -7.1 °C -8.6 °C 34533.8 hPa ENE 8.9 km/h 33.2 km/h 84 % 83.82 mm
22:35 -7.1 °C -8.6 °C 34533.8 hPa ENE 10.3 km/h 33.2 km/h 85 % 116.84 mm
22:40 -7.2 °C -8.5 °C 34533.8 hPa ENE 9 km/h 15.6 km/h 86 % 121.92 mm
22:42 -7.2 °C -8.5 °C 34533.8 hPa ENE 11.1 km/h 25.4 km/h 86 % 129.54 mm
22:47 -7.2 °C -8.6 °C 34533.8 hPa ENE 11.9 km/h 27.7 km/h 86 % 121.92 mm
22:52 -7.2 °C -8.7 °C 34496.6 hPa NNE 13.5 km/h 27.7 km/h 85 % 142.24 mm
22:57 -7.3 °C -8.7 °C 34496.6 hPa NNW 11.4 km/h 27.2 km/h 85 % 147.32 mm
23:02 -7.3 °C -8.7 °C 34496.6 hPa SSW 9.8 km/h 16.3 km/h 86 % 147.32 mm
23:07 -7.3 °C -8.6 °C 34533.8 hPa SSE 11.1 km/h 22.5 km/h 87 % 147.32 mm
23:12 -7.4 °C -8.7 °C 34533.8 hPa ESE 9.3 km/h 22.5 km/h 86 % 160.02 mm
23:17 -7.4 °C -8.7 °C 34533.8 hPa East 8.5 km/h 20.9 km/h 87 % 180.34 mm
23:22 -7.4 °C -8.7 °C 34533.8 hPa East 9.3 km/h 20.9 km/h 87 % 180.34 mm
23:27 -7.4 °C -8.7 °C 34533.8 hPa ESE 9.3 km/h 16.9 km/h 87 % 154.94 mm
23:32 -7.5 °C -8.7 °C 34533.8 hPa SSE 10.1 km/h 16.9 km/h 87 % 104.14 mm
23:42 -7.6 °C -8.6 °C 34567.7 hPa SSW 9.8 km/h 19.2 km/h 89 % 83.82 mm
23:47 -7.7 °C -8.7 °C 34567.7 hPa SSW 3.7 km/h 12.7 km/h 89 % 83.82 mm
23:52 -7.7 °C -8.6 °C 34567.7 hPa SW 0.3 km/h 6.9 km/h 90 % 71.12 mm
23:57 -7.7 °C -8.7 °C 34567.7 hPa SW 3.4 km/h 8 km/h 89 % 63.5 mm
Vremenska postaja Senovo
Podatki zbrani iz Weather Underground - 3 mb

Script developed by  Jim McMurry - jmcmurry@mwt.net Adapted for the template by  Wim van der Kuil - Leuven-Template.eu

Vremenski podatki so objavljeni na:

European Weather Network

WeatherCloud

Weather Underground

AWEKAS

HAMweather, WeatherForYou, PWS Weather

MapView

Geostik

Slovenia weather network

Oprema, ki se uporablja:

Vremenski program
Cumulus

Vremenski server
Asus

Cumulus

Asus